Nashua, NH

8:46 AM EDT on October 20, 2017 (GMT -0400)
Boire

Weather History for KASH - December, 2011

Change the Weather History Date:

Thursday, December 22, 2011

  Actual Average Record
Temperature  
Mean Temperature 44 °F -  
Max Temperature 52 °F 37 °F 64 °F (1949)
Min Temperature 35 °F 18 °F -16 °F (1958)
Degree Days  
Heating Degree Days 22    
Moisture  
Dew Point 37 °F    
Average Humidity 75    
Maximum Humidity 100    
Minimum Humidity 50    
Precipitation  
Precipitation 0.09 in - - ()
Sea Level Pressure  
Sea Level Pressure 29.85 in    
Wind  
Wind Speed 4 mph (WNW)    
Max Wind Speed 14 mph    
Max Gust Speed -    
Visibility 6 miles    
Events Rain    
Averages and records for this station are not official NWS values.
T = Trace of Precipitation, MM = Missing Value Source: NWS Daily Summary

Daily Weather History Graph

Daily Weather History Graph

Search for Another Location

Airport or City:

Trip Planner

Search our weather history database for the weather conditions in past years. The results will help you decide how hot, cold, wet, or windy it might be!

Date:

Astronomy

Dec. 22, 2011 Rise Set
Actual Time 7:13 AM EST 4:15 PM EST
Civil Twilight 6:41 AM EST 4:47 PM EST
Nautical Twilight 6:05 AM EST 5:23 PM EST
Astronomical Twilight 5:31 AM EST 5:57 PM EST
Moon 4:53 AM EST (12/22) 2:23 PM EST (12/22)
Length of Visible Light 10h 06m
Length of Day
9h 01m
Waning Crescent, 6% of the Moon is Illuminated
Dec 22
Waning Crescent
Dec 24
New
Jan 1
First Quarter
Jan 9
Full
Jan 16
Last Quarter

Hourly Weather History & Observations

Time (EST) Temp. Windchill Dew Point Humidity Pressure Visibility Wind Dir Wind Speed Gust Speed Precip Events Conditions
12:05 AM 35.6 °F - 35.6 °F 100% 29.60 in 1.0 mi Calm Calm - 0.02 in Rain Light Rain
12:10 AM 37.4 °F - 35.6 °F 93% 29.60 in 1.5 mi Calm Calm - 0.02 in Rain Light Rain
12:33 AM 37.4 °F - 35.6 °F 93% 29.61 in 2.0 mi Calm Calm - 0.05 in Rain Light Rain
12:41 AM 37.4 °F - 35.6 °F 93% 29.61 in 1.8 mi Calm Calm - 0.05 in Rain Light Rain
12:51 AM 36.9 °F - 34.9 °F 93% 29.62 in 1.8 mi Calm Calm - 0.06 in Rain Light Rain
1:00 AM 37.4 °F - 35.6 °F 93% 29.59 in 1.5 mi Calm Calm - 0.01 in Rain Light Rain
1:18 AM 37.4 °F - 35.6 °F 93% 29.61 in 1.2 mi Calm Calm - 0.02 in   Mostly Cloudy
1:22 AM 37.4 °F - 35.6 °F 93% 29.62 in 1.5 mi Calm Calm - 0.02 in   Mostly Cloudy
1:32 AM 37.4 °F 33.8 °F 35.6 °F 93% 29.63 in 2.5 mi NW 4.6 mph - 0.02 in   Mostly Cloudy
1:39 AM 37.4 °F 32.8 °F 35.6 °F 93% 29.63 in 3.0 mi NW 5.8 mph - 0.02 in Rain Light Rain
1:51 AM 36.9 °F - 36.0 °F 97% 29.65 in 4.0 mi Calm Calm - 0.02 in Rain Light Rain
2:51 AM 50.0 °F - 45.9 °F 86% 29.69 in 10.0 mi West 9.2 mph - 0.01 in   Clear
3:51 AM 50.9 °F - 43.9 °F 77% 29.72 in 10.0 mi West 8.1 mph - N/A   Clear
4:51 AM 52.0 °F - 43.0 °F 71% 29.76 in 10.0 mi West 8.1 mph - N/A   Mostly Cloudy
5:51 AM 50.0 °F - 41.9 °F 74% 29.81 in 10.0 mi West 8.1 mph - N/A   Clear
6:51 AM 48.9 °F - 39.9 °F 71% 29.88 in 10.0 mi WNW 12.7 mph - N/A   Clear
7:51 AM 48.9 °F - 39.9 °F 71% 29.92 in 10.0 mi WNW 8.1 mph - N/A   Scattered Clouds
9:20 AM 51.8 °F - 39.2 °F 62% 29.99 in 1.8 mi West 9.2 mph - N/A   Haze
9:29 AM 51.8 °F - 39.2 °F 62% 29.98 in 3.0 mi WNW 11.5 mph - N/A   Haze
9:51 AM 50.0 °F - 37.9 °F 63% 30.01 in 6.0 mi NW 8.1 mph - N/A   Haze
10:51 AM 52.0 °F - 36.9 °F 56% 30.01 in 10.0 mi NW 9.2 mph - N/A   Mostly Cloudy
11:12 AM 51.8 °F - 35.6 °F 54% 29.98 in 2.5 mi WNW 11.5 mph - N/A   Haze
11:22 AM 51.8 °F - 35.6 °F 54% 29.99 in 4.0 mi WNW 13.8 mph - N/A   Haze
11:51 AM 52.9 °F - 34.9 °F 50% 29.99 in 4.0 mi West 12.7 mph - N/A   Haze
1:51 PM 52.9 °F - 36.0 °F 53% 30.00 in 10.0 mi WNW 10.4 mph - N/A   Scattered Clouds
2:51 PM 50.9 °F - 34.9 °F 54% 30.02 in 3.0 mi WNW 9.2 mph - N/A   Haze
3:51 PM 50.0 °F - 34.0 °F 54% 30.05 in 10.0 mi WSW 3.5 mph - N/A   Mostly Cloudy
4:51 PM 48.9 °F - 34.0 °F 56% 30.07 in 10.0 mi Variable 3.5 mph - N/A   Mostly Cloudy
6:51 PM 45.0 °F - 34.0 °F 65% 30.09 in 10.0 mi Calm Calm - N/A   Clear
7:51 PM 43.0 °F - 34.9 °F 73% 30.07 in 10.0 mi Calm Calm - N/A   Clear
8:51 PM 43.0 °F - 34.9 °F 73% 30.07 in 10.0 mi Calm Calm - N/A   Clear
10:51 PM 41.0 °F - 36.0 °F 82% 30.05 in 10.0 mi Calm Calm - N/A   Overcast
11:51 PM 41.0 °F - 36.0 °F 82% 30.06 in 10.0 mi Calm Calm - 0.00 in Rain Light Rain